Regional Weather Roundup
Issued by NWS

Home | Current Version | Previous Version | Graphics & Text | Print | Product List | Glossary On
Versions: 1 2 3 4 5 6 7 8 9 10 11 12 13 14 15 16 17 18 19 20 21 22 23 24 25 26 27 28 29 30 31 32 33 34 35 36 37 38 39 40 41 42 43 44 45 46 47 48 49 50
000
ASUS44 KMEG 290410
RWRTN
TENNESSEE HOURLY STATE WEATHER ROUNDUP
NATIONAL WEATHER SERVICE MEMPHIS TN
1100 PM CDT THU AUG 28 2014

TNZ002-004-019-021-049-052-054-088>092-290500-
WEST TENNESSEE

CITY           SKY/WX    TMP DP  RH WIND       PRES   REMARKS
MEMPHIS INTL   MOCLDY    86  68  54 SE3       29.97R
NWS MEMPHIS      N/A     79 N/A N/A MISG        N/A
JACKSON        CLEAR     74  71  91 CALM      29.98S
DYERSBURG      CLEAR     75  64  69 NE5       29.98F
UNION CITY     CLEAR     73  72  94 CALM      29.98S
PARIS          CLEAR     70  70 100 N3        30.00S
HUNTINGDON     CLEAR     71  70  97 CALM      29.99S
LEXINGTON      CLEAR     75  72  88 NE6       29.98F
SAVANNAH       CLEAR     72  72 100 CALM      29.99S
$$

TNZ008-025-027-028-033-062-065-066-290500-
NORTH MIDDLE TENNESSEE

CITY           SKY/WX    TMP DP  RH WIND       PRES   REMARKS
NASHVILLE      MOCLDY    79  72  79 NE5       30.02R
DICKSON        PTCLDY    72  70  94 CALM      30.02S
PORTLAND       CLOUDY    72  70  94 CALM      30.02S
CLARKSVILLE    MOCLDY    75  70  84 CALM      30.01S
LEBANON        PTCLDY    75  70  85 CALM      30.01R
SMYRNA         PTCLDY    80  74  82 CALM      30.02S
MURFREESBORO   PTCLDY    81  71  71 CALM      30.01R
COOKEVILLE     CLEAR     72  72 100 CALM      30.04S
LIVINGSTON     PTCLDY    71  67  87 NE6       30.07
GALLATIN       PTCLDY    78  75  90 CALM      30.02S
CROSSVILLE     PTCLDY    72  68  87 CALM      30.10S FOG
$$

TNZ061-075-076-078-094-096-097-290500-
SOUTH MIDDLE TENNESSEE

CITY           SKY/WX    TMP DP  RH WIND       PRES   REMARKS
LEWISBURG      PTCLDY    72  70  93 CALM      30.01R
FAYETTEVILLE   CLEAR     73  64  73 E5        30.03S
TULLAHOMA      CLEAR     73  68  83 CALM      30.05S
WINCHESTER     CLEAR     72  68  88 CALM      30.04S
MCMINNVILLE    CLEAR     73  73 100 CALM      30.04F
COLUMBIA       PTCLDY    75  73  94 CALM      30.00S
SHELBYVILLE    CLEAR     75  73  94 E5        30.03S
$$

TNZ017-018-042-046-047-290500-
NORTHEAST TENNESSEE

CITY           SKY/WX    TMP DP  RH WIND       PRES   REMARKS
TRI CITIES     PTCLDY    72  66  81 CALM      30.09S
ELIZABETHTON   CLEAR     68  64  88 CALM      30.10S
$$

TNZ012-013-036-069-073-074-290500-
CENTRAL EAST TENNESSEE

CITY           SKY/WX    TMP DP  RH WIND       PRES   REMARKS
KNOXVILLE      CLEAR     76  71  85 CALM      30.04R
OAK RIDGE      CLEAR     76  72  87 CALM      30.06R
GATLINBURG     CLEAR     73  70  88 CALM      30.05R
MORRISTOWN     CLEAR     73  70  88 E3        30.08S
$$

TNZ083-085-099-290500-
SOUTHEAST TENNESSEE

CITY           SKY/WX    TMP DP  RH WIND       PRES   REMARKS
CHATTANOOGA    CLEAR     76  67  73 CALM      30.03R
$$

SKY/WX REPORTED AS FAIR MEANS FEW OR NO CLOUDS BELOW
12 THOUSAND FEET.




USA.gov is the U.S. government's official web portal to all federal, state and local government web resources and services.